Regional Weather Roundup
Issued by NWS

Home | Current Version | Previous Version | Graphics & Text | Print | Product List | Glossary On
Versions: 1 2 3 4 5 6 7 8 9 10 11 12 13 14 15 16 17 18 19 20 21 22 23 24 25 26 27 28 29 30 31 32 33 34 35 36 37 38 39 40 41 42 43 44 45 46 47 48 49 50
959
ASUS43 KLOT 071812
RWRIL

ILLINOIS REGIONAL WEATHER ROUNDUP
NATIONAL WEATHER SERVICE CHICAGO/ROMEOVILLE IL
1200 PM CST WED DEC 07 2016

NOTE: "FAIR" INDICATES FEW OR NO CLOUDS BELOW 12,000 FEET WITH NO
SIGNIFICANT WEATHER AND/OR OBSTRUCTIONS TO VISIBILITY.

* THESE STATIONS ARE NOT UNDER NWS QUALITY CONTROL. THEY ALSO MAY NOT
  REPORT WEATHER SUCH AS PRECIPITATION OR FOG.

ILZ001-002-007-009-015-016-024-071900-
NORTHWEST ILLINOIS

CITY           SKY/WX    TMP DP  RH WIND       PRES   REMARKS
MOLINE         CLOUDY    27  16  63 W9G21     30.15F WCI  18
6HR MIN TEMP:  23; 6HR MAX TEMP:  29;

STERLING*      MOSUNNY   24  18  77 W21       30.14S WCI   9
SAVANNA*       PTSUNNY   24  16  71 W9        30.13F WCI  14
$$

ILZ003-004-008-010-011-017-018-071900-
NORTH CENTRAL ILLINOIS

CITY           SKY/WX    TMP DP  RH WIND       PRES   REMARKS
ROCKFORD       PTSUNNY   25  16  68 W16       30.11S WCI  12
6HR MIN TEMP:  21; 6HR MAX TEMP:  26;

FREEPORT*      PTSUNNY   23  15  74 W13       30.11S WCI  11
ROCHELLE*      SUNNY     24  18  77 W18       30.12S WCI  10
DE KALB*       SUNNY     24  18  80 W12G20    30.09S WCI  12
$$

ILZ005-006-012>014-019>023-071900-
NORTHEAST ILLINOIS

CITY           SKY/WX    TMP DP  RH WIND       PRES   REMARKS
CHICAGO-OHARE  PTSUNNY   27  18  69 SW14      30.08F WCI  16
6HR MIN TEMP:  24; 6HR MAX TEMP:  27;

CHICAGO-MIDWAY MOSUNNY   29  18  63 SW15      30.09F WCI  18
6HR MIN TEMP:  26; 6HR MAX TEMP:  29;

AURORA         SUNNY     26  19  74 W12       30.12S WCI  16
6HR MIN TEMP:  24; 6HR MAX TEMP:  26;

LANSING*       CLOUDY    28  22  78 SW12      30.10F WCI  18
JOLIET*        SUNNY     29  20  69 W10G16    30.13S WCI  19
WAUKEGAN       MOSUNNY   29  19  66 SW9G18    30.03F WCI  20
6HR MIN TEMP:  23; 6HR MAX TEMP:  29;

DUPAGE AIRPORT SUNNY     25  17  72 W17       30.09S WCI  12
6HR MIN TEMP:  23; 6HR MAX TEMP:  25;

KANKAKEE*      MOSUNNY   30  23  73 W15       30.13F WCI  19
WHEELING       SUNNY     27  17  66 SW12      30.08F WCI  17
6HR MIN TEMP:  24; 6HR MAX TEMP:  28;

MORRIS*        SUNNY     27  21  76 W14       30.12S WCI  16
ROMEOVILLE*    SUNNY     27  23  85 W16       30.11S WCI  14
NORTHERLY ISL    N/A     30  19  63 W8          N/A  WCI  23
$$

LMZ740>746-071900-
SOUTHERN LAKE MICHIGAN

STATION/POSITION SKY/WX   TEMP    WIND        PRES    VSBY  WAVE
                          AIR SEA DIR/SP/G                  HT/PER
                          (F)     (DEG/KT/KT) (MB)    (MI)  (FT/S)
HARRISON CRIB              29     240/ 14/ 16   N/A
BURNHAM HARBOR             29     270/  8/ 14   N/A
CALUMET HARBOR             29     220/ 10/ 15 1018.3F
BURNS HARBOR               30     240/ 13/ 16 1019.3F
MICHIGAN CITY              30     190/ 11/ 13   N/A
$$

ILZ025>027-034>036-040-047-049-050-058-095>099-071900-
WEST-CENTRAL ILLINOIS

CITY           SKY/WX    TMP DP  RH WIND       PRES   REMARKS
QUINCY         PTSUNNY   31  16  54 W10       30.22F WCI  22
GALESBURG*     CLOUDY    28  19  71 W10       30.18S WCI  18
MACOMB*        CLOUDY    30  20  66 W13       30.22F WCI  20
JACKSONVILLE*  CLOUDY    33  18  53 W10       30.20F WCI  25
PITTSFIELD*    CLOUDY    34  18  52 W7        30.23S WCI  28
$$

ILZ028>032-037-038-041>044-048-051>054-059>061-071900-
CENTRAL ILLINOIS

CITY           SKY/WX    TMP DP  RH WIND       PRES   REMARKS
PONTIAC        MOSUNNY   32  26  77 W15       30.15S WCI  22
BLOOMINGTON    SUNNY     34  21  59 W13       30.16F WCI  25
DECATUR        MOSUNNY   34  20  56 W9        30.18F WCI  27
PEORIA         MOSUNNY   31  17  56 W14G21    30.19S WCI  21
6HR MIN TEMP:  27; 6HR MAX TEMP:  32;

LACON*         MOSUNNY   31  19  63 W12G17    30.16S WCI  21
LINCOLN*       PTSUNNY   33  21  61 W7        30.19S WCI  26
SPRINGFIELD    CLOUDY    34  20  56 W9        30.20F WCI  27
6HR MIN TEMP:  29; 6HR MAX TEMP:  34;

TAYLORVILLE    MOSUNNY   33  22  63 W13G18    30.20F WCI  24
6HR MIN TEMP:  26; 6HR MAX TEMP:  33;

$$

ILZ033-039-045-046-055>057-062-063-071900-
EAST-CENTRAL ILLINOIS

CITY           SKY/WX    TMP DP  RH WIND       PRES   REMARKS
CHAMPAIGN      SUNNY     34  22  61 W15       30.16F WCI  24
RANTOUL*       MOSUNNY   34  25  70 W10G17    30.15S WCI  26
MATTOON        CLOUDY    33  19  56 W9        30.16F WCI  25
PARIS*         CLOUDY    34  25  67 W12       30.17F WCI  26
$$

ILZ079-100>102-071900-
SOUTHWEST ILLINOIS

CITY           SKY/WX    TMP DP  RH WIND       PRES   REMARKS
ALTON          CLOUDY    34  18  51 W6        30.23F WCI  29
BELLEVILLE     CLOUDY    37  18  45 NW5       30.21F WCI  34
CAHOKIA*       CLOUDY    37  17  44 W6        30.23F WCI  32
SPARTA*        CLOUDY    35  20  54 NW3       30.23F
$$

ILZ064>066-069>071-074>076-080>082-084>086-088>090-092>094-071900-
SOUTH-CENTRAL ILLINOIS

CITY           SKY/WX    TMP DP  RH WIND       PRES   REMARKS
CARBONDALE     CLOUDY    38  23  55 CALM      30.22F
6HR MIN TEMP:  25; 6HR MAX TEMP:  38;

CAIRO*         SUNNY     41  22  47 NE3       30.21F
EFFINGHAM*     CLOUDY    35  24  62 W7        30.21S WCI  29
MARION         PTSUNNY   39  19  45 CALM      30.22F
CENTRALIA*     CLOUDY    36  25  63 CALM      30.21S
SALEM*         CLOUDY    37  24  59 W9        30.21S WCI  30
METROPOLIS*    SUNNY     42  22  44 CALM      30.21F
$$

ILZ067-068-072-073-078-083-087-091-071900-
SOUTHEAST ILLINOIS

CITY           SKY/WX    TMP DP  RH WIND       PRES   REMARKS
LAWRENCEVILLE  CLOUDY    36  22  56 W7        30.20F WCI  30
FLORA*         CLOUDY    37  22  54 NW5       30.21F WCI  34
FAIRFIELD*     CLOUDY    36  22  58 CALM      30.20S
HARRISBURG*    CLOUDY    39  23  51 CALM      30.21F
ROBINSON*      CLOUDY    35  21  57 NW5       30.20F WCI  31
CARMI*         CLOUDY    38  25  60 CALM      30.20S
$$

ABBREVIATIONS USED IN REMARKS
   TC - TEMPERATURE IN CELSIUS
  WCI - WIND CHILL INDEX
   HX - HEAT INDEX
  VSB - VISIBILITY
$$





USA.gov is the U.S. government's official web portal to all federal, state and local government web resources and services.